SCP
0 0 0 0 0 0 0 0 0 0 0 0 0 0 0 0 0 0 0 0 0 0 0 0 0 0 0 0 0 0 0 0 0 0 0 0 0 0
0 0 0 0 0 0 0 0 0 0 0 0 0 0 0 0 0 0 0 0 0 0 0 0 0 0 0 0 0 0 0 0 0 0 0 0 0 0
0 0 0 0 0 0 0 0 0 0 0 0 0 0 0 0 0 0 0 0 0 0 0 0 0 0 0 0 0 0 0 0 0 0 0 0 0 0
0 0 0 0 0 0 0 0 0 0 0 0 0 0 0 0 0 0 0 0 0 0 0 0 0 0 0 0 0 0 0 0 0 0 0 0 0 0
0 0 0 0 0 0 0 0 0 0 0 0 0 0 0 0 0 0 0 0 0 0 0 0 0 0 0 0 0 0 0 0 0 0 0 0 0 0
0 0 0 0 0 0 0 0 0 0 0 0 0 0 0 0 0 0 0 0 0 0 0 0 0 0 0 0 0 0 0 0 0 0 0 0 0 0
0 0 0 0 0 0 0 0 0 0 0 0 0 0 0 0 0 0 0 0 0 0 0 0 0 0 0 0 0 0 0 0 0 0 0 0 0 0
0 0 0 0 0 0 0 0 0 0 0 0 0 0 0 0 0 0 0 0 0 0 0 0 0 0 0 0 0 0 0 0 0 0 0 0 0 0
0 0 0 0 0 0 0 0 0 0 0 0 0 0 0 0 0 0 0 0 0 0 0 0 0 0 0 0 0 0 0 0 0 0 0 0 0 0
0 0 0 0 0 0 0 0 0 0 0 0 0 0 0 0 0 0 0 0 0 0 0 0 0 0 0 0 0 0 0 0 0 0 0 0 0 0
0 0 0 0 0 0 0 0 0 0 0 0 0 0 0 0 0 0 0 0 0 0 0 0 0 0 0 0 0 0 0 0 0 0 0 0 0 0
0 0 0 0 0 0 0 0 0 0 0 0 0 0 0 0 0 0 0 0 0 0 0 0 0 0 0 0 0 0 0 0 0 0 0 0 0 0
0 0 0 0 0 0 0 0 0 0 0 0 0 0 0 0 0 0 0 0 0 0 0 0 0 0 0 0 0 0 0 0 0 0 0 0 0 0
0 0 0 0 0 0 0 0 0 0 0 0 0 0 0 0 0 0 0 0 0 0 0 0 0 0 0 0 0 0 0 0 0 0 0 0 0 0
0 0 0 0 0 0 0 0 0 0 0 0 0 0 0 0 0 0 0 0 0 0 0 0 0 0 0 0 0 0 0 0 0 0 0 0 0 0
0 0 0 0 0 0 0 0 0 0 0 0 0 0 0 0 0 0 0 0 0 0 0 0 0 0 0 0 0 0 0 0 0 0 0 0 0 0
0 0 0 0 0 0 0 0 0 0 0 0 0 0 0 0 0 0 0 0 0 0 0 0 0 0 0 0 0 0 0 0 0 0 0 0 0 0
0 0 0 0 0 0 0 0 0 0 0 0 0 0 0 0 0 0 0 0 0 0 0 0 0 0 0 0 0 0 0 0 0 0 0 0 0 0
0 0 0 0 0 0 0 0 0 0 0 0 0 0 0 0 0 0 0 0 0 0 0 0 0 0 0 0 0 0 0 0 0 0 0 0 0 0
0 0 0 0 0 0 0 0 0 0 0 0 0 0 0 0 0 0 0 0 0 0 0 0 0 0 0 0 0 0 0 0 0 0 0 0 0 0
0 0 0 0 0 0 0 0 0 0 0 0 0 0 0 0 0 0 0 0 0 0 0 0 0 0 0 0 0 0 0 0 0 0 0 0 0 0
0 0 0 0 0 0 0 0 0 0 0 0 0 0 0 0 0 0 0 0 0 0 0 0 0 0 0 0 0 0 0 0 0 0 0 0 0 0
0 0 0 0 0 0 0 0 0 0 0 0 0 0 0 0 0 0 0 0 0 0 0 0 0 0 0 0 0 0 0 0 0 0 0 0 0 0
Wind_Speed
3 3 2 2 2 2 2 3 5 3 0 1 1 1 0 1 2 2 2 5 6 6 6 6 7 7 7 8 9 9 10 10 9 9 9 9 9 9
2 3 3 1 2 2 2 2 2 4 2 1 1 1 0 1 2 2 2 4 4 5 5 5 5 5 6 6 7 8 8 8 8 8 8 8 9 9
2 3 2 2 2 1 2 2 2 3 3 0 0 0 1 1 1 1 1 1 2 4 4 4 4 5 5 5 6 6 6 7 7 7 8 8 9 9
2 3 2 2 2 1 2 2 2 2 3 2 0 0 0 1 0 1 1 1 1 3 3 3 3 4 4 4 5 5 5 5 5 6 8 8 9 10
3 3 2 3 2 1 2 2 2 2 2 3 1 0 0 1 1 1 1 1 1 1 2 1 2 2 3 3 4 4 5 5 5 6 6 7 8 9
3 3 3 4 3 3 2 2 3 3 3 3 2 0 0 1 1 1 1 1 1 1 2 1 2 2 2 3 3 3 4 4 4 5 6 7 7 7
2 2 2 4 5 4 4 3 4 3 2 2 1 1 0 0 1 1 0 1 2 1 1 2 1 2 2 4 4 4 4 4 4 5 6 6 7 8
3 2 1 2 3 4 6 7 7 6 4 3 2 2 2 2 1 1 1 1 2 2 0 2 1 2 3 2 4 4 4 4 5 5 6 7 7 8
3 2 2 2 2 2 3 4 3 5 7 6 4 4 3 4 3 2 2 2 3 2 1 2 2 2 3 3 5 5 5 5 6 6 7 7 7 8
3 3 3 2 2 4 3 2 1 1 2 3 4 4 4 3 4 4 3 1 2 2 1 1 2 3 3 3 5 4 5 5 6 7 7 7 7 7
2 3 3 3 4 6 5 3 1 1 0 2 3 3 3 3 4 3 2 1 1 2 1 1 2 2 2 2 4 5 5 6 6 7 8 7 7 7
1 1 3 5 6 6 5 4 3 2 1 1 1 1 0 1 2 3 3 2 1 2 2 1 1 1 2 2 2 3 3 6 7 8 8 8 7 3
2 2 2 5 6 6 6 4 5 4 2 2 1 0 0 0 1 1 2 3 3 3 2 2 1 1 1 3 3 2 2 2 3 4 6 7 8 5
3 3 3 5 5 5 4 4 5 4 2 2 1 1 1 1 1 1 1 2 2 3 2 2 2 2 2 2 3 3 2 2 2 2 3 6 6 8
3 4 5 5 4 3 4 5 4 2 2 2 2 2 2 2 1 0 0 0 1 2 1 2 2 2 2 3 3 3 3 3 2 2 3 3 3 3
2 3 4 4 2 2 1 2 2 2 3 3 3 2 1 1 1 1 1 0 1 2 2 2 2 2 2 3 3 3 3 3 3 3 3 3 3 3
3 1 1 1 1 1 1 1 1 1 2 2 2 2 1 1 1 1 1 1 1 2 2 2 2 2 3 3 3 4 4 4 4 3 3 4 4 4
4 2 2 3 3 3 3 2 2 3 3 2 2 2 2 2 2 1 1 2 2 3 3 2 1 1 2 3 5 4 3 4 4 3 2 3 5 5
3 3 3 4 4 3 3 3 3 3 3 3 3 3 3 3 2 2 2 2 3 3 3 2 1 1 2 5 4 4 3 4 3 3 3 3 5 6
3 4 4 4 4 4 4 4 3 3 3 3 3 3 3 3 3 3 3 3 3 3 3 2 2 3 4 5 4 4 5 4 3 4 4 4 5 7
4 4 4 3 3 3 3 3 3 3 3 3 3 3 3 3 3 3 3 4 3 3 4 4 5 5 2 1 3 4 4 5 5 4 4 4 5 4
4 4 3 3 3 3 3 3 3 3 4 4 4 3 3 3 4 4 4 3 4 4 4 4 2 1 1 3 5 5 5 5 5 7 7 5 3 4
4 4 3 3 3 3 3 3 4 4 4 4 4 4 4 4 4 4 4 4 3 4 3 3 2 2 3 3 4 5 6 6 4 4 5 7 10 11
Wind_Direction
99 98 96 94 97 104 123 140 140 140 214 275 310 317 334 63 60 59 51 64 64 61 58 57 53 50 49 45 43 41 38 36 36 36 33 29 24 20
110 100 94 96 94 95 114 114 128 141 156 223 224 234 152 91 88 70 54 64 57 59 57 53 49 46 47 44 39 36 32 29 27 27 24 19 15 11
101 106 104 107 102 95 101 97 97 115 131 200 359 72 84 82 52 38 50 36 35 53 47 47 47 46 50 46 37 29 22 21 18 17 15 12 8 4
123 110 113 114 103 99 101 103 108 113 130 133 62 59 132 177 124 68 48 47 28 45 47 47 47 50 40 30 28 23 18 14 15 11 6 2 1 360
144 140 147 126 117 111 104 108 108 99 103 128 143 120 22 40 55 15 12 351 334 26 21 31 42 33 26 28 23 17 15 13 8 0 358 357 356 355
154 159 161 155 160 149 132 136 124 108 102 113 118 92 21 358 75 39 344 326 313 348 352 351 358 342 340 341 346 349 352 355 358 356 353 350 349 349
143 156 165 161 162 159 151 156 143 133 123 121 127 96 345 109 226 231 227 308 307 318 319 318 329 325 311 306 304 311 324 333 339 342 345 343 341 341
159 164 158 156 160 154 149 152 156 156 160 156 166 183 220 216 200 173 144 50 300 294 262 292 286 283 282 277 295 300 308 317 324 329 333 334 333 332
163 166 161 138 136 135 137 140 155 165 166 168 175 200 201 203 173 171 187 191 232 259 146 281 287 274 276 285 290 291 303 311 316 321 323 324 326 328
164 167 160 160 152 147 132 114 110 164 190 186 189 199 196 190 179 183 188 198 280 298 141 253 281 277 299 300 299 296 309 315 319 323 325 325 325 326
173 166 160 165 164 150 138 141 144 271 199 148 160 166 164 159 149 119 107 100 291 288 223 199 275 292 298 298 307 310 311 319 324 326 325 324 321 321
180 191 177 176 174 161 156 161 179 220 185 118 90 43 120 167 161 169 171 163 206 275 266 188 276 332 315 299 309 318 316 317 321 323 323 325 323 321
187 209 219 187 178 174 169 180 193 182 166 158 155 150 28 342 271 220 184 173 180 232 240 168 201 231 241 292 306 306 301 304 314 314 318 326 328 325
201 207 203 179 173 176 180 185 180 161 142 146 160 213 229 244 251 236 215 206 201 214 220 170 188 202 212 267 286 302 302 296 296 295 299 317 317 316
203 194 186 180 177 187 192 181 169 157 150 168 207 233 233 230 220 220 298 264 289 281 262 212 202 209 197 223 260 284 300 300 290 288 295 293 286 295
200 192 186 179 177 178 174 183 181 176 176 199 218 236 234 208 210 198 201 216 286 296 288 255 229 202 219 236 240 268 269 278 292 287 286 284 281 272
158 121 117 157 193 208 208 207 197 191 207 211 207 221 227 226 241 224 200 184 220 275 297 298 274 249 235 227 246 257 264 267 270 278 288 288 282 276
151 170 193 201 206 207 209 217 211 212 216 211 210 216 221 225 236 228 209 212 240 257 265 271 309 339 327 282 232 246 261 268 275 271 260 273 286 286
165 192 203 209 213 210 209 213 220 218 205 202 211 219 222 225 225 230 226 230 246 254 257 248 226 219 284 293 281 239 252 275 283 279 265 257 271 284
195 202 211 215 215 211 210 213 219 214 206 211 217 222 220 219 222 230 229 231 244 256 265 259 237 227 239 260 271 283 266 259 267 279 281 278 275 284
213 214 215 216 217 214 210 207 207 212 211 208 216 221 218 213 225 232 235 247 245 252 261 264 259 259 247 256 285 287 280 272 269 270 277 286 297 297
215 215 215 214 213 211 209 208 211 216 216 217 220 221 218 213 221 229 234 238 241 245 257 271 281 258 209 238 265 278 287 292 293 294 290 281 283 285
212 214 214 212 215 215 211 211 214 223 222 218 219 219 212 215 221 226 234 238 243 251 262 273 282 261 247 249 262 274 284 292 295 299 291 299 296 290